Location: *
(28.3744°N, 81.5492°W)
Time: 04:02:47
(UTC+00:00)

Cosmos 921 Rocket - Pass Details

Date: 15 June 2025
Orbit: 564 x 622 km, 75.8° (Epoch: 11 July)

Event Time Altitude Azimuth Distance (km) Brightness Sun altitude
Exits shadow 02:43:37 21° 236° (SW) 1,312 4.8 -25.1°
Maximum altitude 02:45:45 35° 287° (WNW) 951 4.4 -25.4°
Drops below altitude 10° 02:49:40 10° 354° (N) 1,917 6.3 -25.9°
Sets 02:52:04 0° 3° (N) 2,833 7.1 -26.3°
